owner,sensor,date,latitude,longitude,sea_surface_height_above_sea_level,qcFlag 
COMPS,ioos:station:USF.COMPS:ARP:1,2010-12-01T00:00:00Z,28.4330,-82.6670,0.425,1111122 
COMPS,ioos:station:USF.COMPS:ARP:1,2010-12-01T00:06:00Z,28.4330,-82.6670,0.441,1111122 
COMPS,ioos:station:USF.COMPS:ARP:1,2010-12-01T00:12:00Z,28.4330,-82.6670,0.453,1111122 
COMPS,ioos:station:USF.COMPS:ARP:1,2010-12-01T00:18:00Z,28.4330,-82.6670,0.465,1111122 
COMPS,ioos:station:USF.COMPS:ARP:1,2010-12-01T00:24:00Z,28.4330,-82.6670,0.478,1111122 
COMPS,ioos:station:USF.COMPS:ARP:1,2010-12-01T00:30:00Z,28.4330,-82.6670,0.488,1111122 
COMPS,ioos:station:USF.COMPS:ARP:1,2010-12-01T00:36:00Z,28.4330,-82.6670,0.494,1111122 
COMPS,ioos:station:USF.COMPS:ARP:1,2010-12-01T00:42:00Z,28.4330,-82.6670,0.5,1111122 
COMPS,ioos:station:USF.COMPS:ARP:1,2010-12-01T00:48:00Z,28.4330,-82.6670,0.498,1111122 
COMPS,ioos:station:USF.COMPS:ARP:1,2010-12-01T00:54:00Z,28.4330,-82.6670,0.494,1111122 
COMPS,ioos:station:USF.COMPS:ARP:1,2010-12-01T01:00:00Z,28.4330,-82.6670,0.494,1111122 
COMPS,ioos:station:USF.COMPS:ARP:1,2010-12-01T01:06:00Z,28.4330,-82.6670,0.494,1111122 
COMPS,ioos:station:USF.COMPS:ARP:1,2010-12-01T01:12:00Z,28.4330,-82.6670,0.497,1111122 
COMPS,ioos:station:USF.COMPS:ARP:1,2010-12-01T01:18:00Z,28.4330,-82.6670,0.501,1111122 
COMPS,ioos:station:USF.COMPS:ARP:1,2010-12-01T01:24:00Z,28.4330,-82.6670,0.505,1111122 
COMPS,ioos:station:USF.COMPS:ARP:1,2010-12-01T01:30:00Z,28.4330,-82.6670,0.506,1111122 
COMPS,ioos:station:USF.COMPS:ARP:1,2010-12-01T01:36:00Z,28.4330,-82.6670,0.504,1111122 
COMPS,ioos:station:USF.COMPS:ARP:1,2010-12-01T01:42:00Z,28.4330,-82.6670,0.492,1111122 
COMPS,ioos:station:USF.COMPS:ARP:1,2010-12-01T01:48:00Z,28.4330,-82.6670,0.48,1111122 
COMPS,ioos:station:USF.COMPS:ARP:1,2010-12-01T01:54:00Z,28.4330,-82.6670,0.468,1111122 
COMPS,ioos:station:USF.COMPS:ARP:1,2010-12-01T02:00:00Z,28.4330,-82.6670,0.458,1111122 
COMPS,ioos:station:USF.COMPS:ARP:1,2010-12-01T02:06:00Z,28.4330,-82.6670,0.448,1111122 
COMPS,ioos:station:USF.COMPS:ARP:1,2010-12-01T02:12:00Z,28.4330,-82.6670,0.45,1111122 
COMPS,ioos:station:USF.COMPS:ARP:1,2010-12-01T02:18:00Z,28.4330,-82.6670,0.436,1111122 
COMPS,ioos:station:USF.COMPS:ARP:1,2010-12-01T02:24:00Z,28.4330,-82.6670,0.433,1111122 
COMPS,ioos:station:USF.COMPS:ARP:1,2010-12-01T02:30:00Z,28.4330,-82.6670,0.418,1111122 
COMPS,ioos:station:USF.COMPS:ARP:1,2010-12-01T02:36:00Z,28.4330,-82.6670,0.408,1111122 
COMPS,ioos:station:USF.COMPS:ARP:1,2010-12-01T02:42:00Z,28.4330,-82.6670,0.393,1111122 
COMPS,ioos:station:USF.COMPS:ARP:1,2010-12-01T02:48:00Z,28.4330,-82.6670,0.383,1111122 
COMPS,ioos:station:USF.COMPS:ARP:1,2010-12-01T02:54:00Z,28.4330,-82.6670,0.375,1111122 
COMPS,ioos:station:USF.COMPS:ARP:1,2010-12-01T03:00:00Z,28.4330,-82.6670,0.365,1111122 
COMPS,ioos:station:USF.COMPS:ARP:1,2010-12-01T03:06:00Z,28.4330,-82.6670,0.355,1111122 
COMPS,ioos:station:USF.COMPS:ARP:1,2010-12-01T03:12:00Z,28.4330,-82.6670,0.351,1111122 
COMPS,ioos:station:USF.COMPS:ARP:1,2010-12-01T03:18:00Z,28.4330,-82.6670,0.338,1111122 
COMPS,ioos:station:USF.COMPS:ARP:1,2010-12-01T03:24:00Z,28.4330,-82.6670,0.331,1111122 
COMPS,ioos:station:USF.COMPS:ARP:1,2010-12-01T03:30:00Z,28.4330,-82.6670,0.327,1111122 
COMPS,ioos:station:USF.COMPS:ARP:1,2010-12-01T03:36:00Z,28.4330,-82.6670,0.312,1111122 
COMPS,ioos:station:USF.COMPS:ARP:1,2010-12-01T03:42:00Z,28.4330,-82.6670,0.31,1111122 
COMPS,ioos:station:USF.COMPS:ARP:1,2010-12-01T03:48:00Z,28.4330,-82.6670,0.297,1111122 
COMPS,ioos:station:USF.COMPS:ARP:1,2010-12-01T03:54:00Z,28.4330,-82.6670,0.286,1111122 
COMPS,ioos:station:USF.COMPS:ARP:1,2010-12-01T04:00:00Z,28.4330,-82.6670,0.277,1111122 
COMPS,ioos:station:USF.COMPS:ARP:1,2010-12-01T04:06:00Z,28.4330,-82.6670,0.27,1111122 
COMPS,ioos:station:USF.COMPS:ARP:1,2010-12-01T04:12:00Z,28.4330,-82.6670,0.262,1111122 
COMPS,ioos:station:USF.COMPS:ARP:1,2010-12-01T04:18:00Z,28.4330,-82.6670,0.254,1111122 
COMPS,ioos:station:USF.COMPS:ARP:1,2010-12-01T04:24:00Z,28.4330,-82.6670,0.242,1111122 
COMPS,ioos:station:USF.COMPS:ARP:1,2010-12-01T04:30:00Z,28.4330,-82.6670,0.231,1111122 
COMPS,ioos:station:USF.COMPS:ARP:1,2010-12-01T04:36:00Z,28.4330,-82.6670,0.217,1111122 
COMPS,ioos:station:USF.COMPS:ARP:1,2010-12-01T04:42:00Z,28.4330,-82.6670,0.212,1111122 
COMPS,ioos:station:USF.COMPS:ARP:1,2010-12-01T04:48:00Z,28.4330,-82.6670,0.196,1111122 
COMPS,ioos:station:USF.COMPS:ARP:1,2010-12-01T04:54:00Z,28.4330,-82.6670,0.18,1111122 
COMPS,ioos:station:USF.COMPS:ARP:1,2010-12-01T05:00:00Z,28.4330,-82.6670,0.166,1111122 
COMPS,ioos:station:USF.COMPS:ARP:1,2010-12-01T05:06:00Z,28.4330,-82.6670,0.149,1111122 
COMPS,ioos:station:USF.COMPS:ARP:1,2010-12-01T05:12:00Z,28.4330,-82.6670,0.134,1111122 
COMPS,ioos:station:USF.COMPS:ARP:1,2010-12-01T05:18:00Z,28.4330,-82.6670,0.117,1111122 
COMPS,ioos:station:USF.COMPS:ARP:1,2010-12-01T05:24:00Z,28.4330,-82.6670,0.101,1111122 
COMPS,ioos:station:USF.COMPS:ARP:1,2010-12-01T05:30:00Z,28.4330,-82.6670,0.087,1111122 
COMPS,ioos:station:USF.COMPS:ARP:1,2010-12-01T05:36:00Z,28.4330,-82.6670,0.072,1111122 
COMPS,ioos:station:USF.COMPS:ARP:1,2010-12-01T05:42:00Z,28.4330,-82.6670,0.055,1111122 
COMPS,ioos:station:USF.COMPS:ARP:1,2010-12-01T05:48:00Z,28.4330,-82.6670,0.037,1111122 
COMPS,ioos:station:USF.COMPS:ARP:1,2010-12-01T05:54:00Z,28.4330,-82.6670,0.021,1111122 
COMPS,ioos:station:USF.COMPS:ARP:1,2010-12-01T06:00:00Z,28.4330,-82.6670,0.007,1111122 
COMPS,ioos:station:USF.COMPS:ARP:1,2010-12-01T06:06:00Z,28.4330,-82.6670,-0.009,1111122 
COMPS,ioos:station:USF.COMPS:ARP:1,2010-12-01T06:12:00Z,28.4330,-82.6670,-0.026,1111122 
COMPS,ioos:station:USF.COMPS:ARP:1,2010-12-01T06:18:00Z,28.4330,-82.6670,-0.04,1111122 
COMPS,ioos:station:USF.COMPS:ARP:1,2010-12-01T06:24:00Z,28.4330,-82.6670,-0.056,1111122 
COMPS,ioos:station:USF.COMPS:ARP:1,2010-12-01T06:30:00Z,28.4330,-82.6670,-0.069,1111122 
COMPS,ioos:station:USF.COMPS:ARP:1,2010-12-01T06:36:00Z,28.4330,-82.6670,-0.085,1111122 
COMPS,ioos:station:USF.COMPS:ARP:1,2010-12-01T06:42:00Z,28.4330,-82.6670,-0.097,1111122 
COMPS,ioos:station:USF.COMPS:ARP:1,2010-12-01T06:48:00Z,28.4330,-82.6670,-0.116,1111122 
COMPS,ioos:station:USF.COMPS:ARP:1,2010-12-01T06:54:00Z,28.4330,-82.6670,-0.131,1111122 
COMPS,ioos:station:USF.COMPS:ARP:1,2010-12-01T07:00:00Z,28.4330,-82.6670,-0.147,1111122 
COMPS,ioos:station:USF.COMPS:ARP:1,2010-12-01T07:06:00Z,28.4330,-82.6670,-0.162,1111122 
COMPS,ioos:station:USF.COMPS:ARP:1,2010-12-01T07:12:00Z,28.4330,-82.6670,-0.175,1111122 
COMPS,ioos:station:USF.COMPS:ARP:1,2010-12-01T07:18:00Z,28.4330,-82.6670,-0.175,1111122 
COMPS,ioos:station:USF.COMPS:ARP:1,2010-12-01T07:24:00Z,28.4330,-82.6670,-0.153,1111122 
COMPS,ioos:station:USF.COMPS:ARP:1,2010-12-01T07:30:00Z,28.4330,-82.6670,-0.131,1111122 
COMPS,ioos:station:USF.COMPS:ARP:1,2010-12-01T07:36:00Z,28.4330,-82.6670,-0.109,1111122 
COMPS,ioos:station:USF.COMPS:ARP:1,2010-12-01T07:42:00Z,28.4330,-82.6670,-0.08,1111122 
COMPS,ioos:station:USF.COMPS:ARP:1,2010-12-01T07:48:00Z,28.4330,-82.6670,-0.05,1111122 
COMPS,ioos:station:USF.COMPS:ARP:1,2010-12-01T07:54:00Z,28.4330,-82.6670,-0.024,1111122 
COMPS,ioos:station:USF.COMPS:ARP:1,2010-12-01T08:00:00Z,28.4330,-82.6670,0.002,1111122 
COMPS,ioos:station:USF.COMPS:ARP:1,2010-12-01T08:06:00Z,28.4330,-82.6670,0.029,1111122 
COMPS,ioos:station:USF.COMPS:ARP:1,2010-12-01T08:12:00Z,28.4330,-82.6670,0.063,1111122 
COMPS,ioos:station:USF.COMPS:ARP:1,2010-12-01T08:18:00Z,28.4330,-82.6670,0.088,1111122 
COMPS,ioos:station:USF.COMPS:ARP:1,2010-12-01T08:24:00Z,28.4330,-82.6670,0.108,1111122 
COMPS,ioos:station:USF.COMPS:ARP:1,2010-12-01T08:30:00Z,28.4330,-82.6670,0.123,1111122 
COMPS,ioos:station:USF.COMPS:ARP:1,2010-12-01T08:36:00Z,28.4330,-82.6670,0.128,1111122 
COMPS,ioos:station:USF.COMPS:ARP:1,2010-12-01T08:42:00Z,28.4330,-82.6670,0.123,1111122 
COMPS,ioos:station:USF.COMPS:ARP:1,2010-12-01T08:48:00Z,28.4330,-82.6670,0.114,1111122 
COMPS,ioos:station:USF.COMPS:ARP:1,2010-12-01T08:54:00Z,28.4330,-82.6670,0.092,1111122 
COMPS,ioos:station:USF.COMPS:ARP:1,2010-12-01T09:00:00Z,28.4330,-82.6670,0.076,1111122 
COMPS,ioos:station:USF.COMPS:ARP:1,2010-12-01T09:06:00Z,28.4330,-82.6670,0.06,1111122 
COMPS,ioos:station:USF.COMPS:ARP:1,2010-12-01T09:12:00Z,28.4330,-82.6670,0.045,1111122 
COMPS,ioos:station:USF.COMPS:ARP:1,2010-12-01T09:18:00Z,28.4330,-82.6670,0.033,1111122 
COMPS,ioos:station:USF.COMPS:ARP:1,2010-12-01T09:24:00Z,28.4330,-82.6670,0.022,1111122 
COMPS,ioos:station:USF.COMPS:ARP:1,2010-12-01T09:30:00Z,28.4330,-82.6670,0.004,1111122 
COMPS,ioos:station:USF.COMPS:ARP:1,2010-12-01T09:36:00Z,28.4330,-82.6670,-0.008,1111122 
COMPS,ioos:station:USF.COMPS:ARP:1,2010-12-01T09:42:00Z,28.4330,-82.6670,-0.018,1111122 
COMPS,ioos:station:USF.COMPS:ARP:1,2010-12-01T09:48:00Z,28.4330,-82.6670,-0.033,1111122 
COMPS,ioos:station:USF.COMPS:ARP:1,2010-12-01T09:54:00Z,28.4330,-82.6670,-0.045,1111122 
COMPS,ioos:station:USF.COMPS:ARP:1,2010-12-01T10:00:00Z,28.4330,-82.6670,-0.055,1111122 
COMPS,ioos:station:USF.COMPS:ARP:1,2010-12-01T10:06:00Z,28.4330,-82.6670,-0.066,1111122 
COMPS,ioos:station:USF.COMPS:ARP:1,2010-12-01T10:12:00Z,28.4330,-82.6670,-0.074,1111122 
COMPS,ioos:station:USF.COMPS:ARP:1,2010-12-01T10:18:00Z,28.4330,-82.6670,-0.083,1111122 
COMPS,ioos:station:USF.COMPS:ARP:1,2010-12-01T10:24:00Z,28.4330,-82.6670,-0.096,1111122 
COMPS,ioos:station:USF.COMPS:ARP:1,2010-12-01T10:30:00Z,28.4330,-82.6670,-0.109,1111122 
COMPS,ioos:station:USF.COMPS:ARP:1,2010-12-01T10:36:00Z,28.4330,-82.6670,-0.122,1111122 
COMPS,ioos:station:USF.COMPS:ARP:1,2010-12-01T10:42:00Z,28.4330,-82.6670,-0.132,1111122 
COMPS,ioos:station:USF.COMPS:ARP:1,2010-12-01T10:48:00Z,28.4330,-82.6670,-0.14,1111122 
COMPS,ioos:station:USF.COMPS:ARP:1,2010-12-01T10:54:00Z,28.4330,-82.6670,-0.146,1111122 
COMPS,ioos:station:USF.COMPS:ARP:1,2010-12-01T11:00:00Z,28.4330,-82.6670,-0.151,1111122 
COMPS,ioos:station:USF.COMPS:ARP:1,2010-12-01T11:06:00Z,28.4330,-82.6670,-0.156,1111122 
COMPS,ioos:station:USF.COMPS:ARP:1,2010-12-01T11:12:00Z,28.4330,-82.6670,-0.164,1111122 
COMPS,ioos:station:USF.COMPS:ARP:1,2010-12-01T11:18:00Z,28.4330,-82.6670,-0.168,1111122 
COMPS,ioos:station:USF.COMPS:ARP:1,2010-12-01T11:24:00Z,28.4330,-82.6670,-0.175,1111122 
COMPS,ioos:station:USF.COMPS:ARP:1,2010-12-01T11:30:00Z,28.4330,-82.6670,-0.181,1111122 
COMPS,ioos:station:USF.COMPS:ARP:1,2010-12-01T11:36:00Z,28.4330,-82.6670,-0.184,1111122 
COMPS,ioos:station:USF.COMPS:ARP:1,2010-12-01T11:42:00Z,28.4330,-82.6670,-0.184,1111122 
COMPS,ioos:station:USF.COMPS:ARP:1,2010-12-01T11:48:00Z,28.4330,-82.6670,-0.189,1111122 
COMPS,ioos:station:USF.COMPS:ARP:1,2010-12-01T11:54:00Z,28.4330,-82.6670,-0.191,1111122 
COMPS,ioos:station:USF.COMPS:ARP:1,2010-12-01T12:00:00Z,28.4330,-82.6670,-0.189,1111122 
COMPS,ioos:station:USF.COMPS:ARP:1,2010-12-01T12:06:00Z,28.4330,-82.6670,-0.192,1111122 
COMPS,ioos:station:USF.COMPS:ARP:1,2010-12-01T12:12:00Z,28.4330,-82.6670,-0.187,1111122 
COMPS,ioos:station:USF.COMPS:ARP:1,2010-12-01T12:18:00Z,28.4330,-82.6670,-0.19,1111122 
COMPS,ioos:station:USF.COMPS:ARP:1,2010-12-01T12:24:00Z,28.4330,-82.6670,-0.18,1111122 
COMPS,ioos:station:USF.COMPS:ARP:1,2010-12-01T12:30:00Z,28.4330,-82.6670,-0.168,1111122 
COMPS,ioos:station:USF.COMPS:ARP:1,2010-12-01T12:36:00Z,28.4330,-82.6670,-0.157,1111122 
COMPS,ioos:station:USF.COMPS:ARP:1,2010-12-01T12:42:00Z,28.4330,-82.6670,-0.143,1111122 
COMPS,ioos:station:USF.COMPS:ARP:1,2010-12-01T12:48:00Z,28.4330,-82.6670,-0.129,1111122 
COMPS,ioos:station:USF.COMPS:ARP:1,2010-12-01T12:54:00Z,28.4330,-82.6670,-0.121,1111122 
COMPS,ioos:station:USF.COMPS:ARP:1,2010-12-01T13:00:00Z,28.4330,-82.6670,-0.112,1111122 
COMPS,ioos:station:USF.COMPS:ARP:1,2010-12-01T13:06:00Z,28.4330,-82.6670,-0.1,1111122 
COMPS,ioos:station:USF.COMPS:ARP:1,2010-12-01T13:12:00Z,28.4330,-82.6670,-0.086,1111122 
COMPS,ioos:station:USF.COMPS:ARP:1,2010-12-01T13:18:00Z,28.4330,-82.6670,-0.075,1111122 
COMPS,ioos:station:USF.COMPS:ARP:1,2010-12-01T13:24:00Z,28.4330,-82.6670,-0.061,1111122 
COMPS,ioos:station:USF.COMPS:ARP:1,2010-12-01T13:30:00Z,28.4330,-82.6670,-0.041,1111122 
COMPS,ioos:station:USF.COMPS:ARP:1,2010-12-01T13:36:00Z,28.4330,-82.6670,-0.027,1111122 
COMPS,ioos:station:USF.COMPS:ARP:1,2010-12-01T13:42:00Z,28.4330,-82.6670,-0.009,1111122 
COMPS,ioos:station:USF.COMPS:ARP:1,2010-12-01T13:48:00Z,28.4330,-82.6670,0.008,1111122 
COMPS,ioos:station:USF.COMPS:ARP:1,2010-12-01T13:54:00Z,28.4330,-82.6670,0.026,1111122 
COMPS,ioos:station:USF.COMPS:ARP:1,2010-12-01T14:00:00Z,28.4330,-82.6670,0.043,1111122 
COMPS,ioos:station:USF.COMPS:ARP:1,2010-12-01T14:06:00Z,28.4330,-82.6670,0.055,1111122 
COMPS,ioos:station:USF.COMPS:ARP:1,2010-12-01T14:12:00Z,28.4330,-82.6670,0.074,1111122 
COMPS,ioos:station:USF.COMPS:ARP:1,2010-12-01T14:18:00Z,28.4330,-82.6670,0.092,1111122 
COMPS,ioos:station:USF.COMPS:ARP:1,2010-12-01T14:24:00Z,28.4330,-82.6670,0.106,1111122 
COMPS,ioos:station:USF.COMPS:ARP:1,2010-12-01T14:30:00Z,28.4330,-82.6670,0.128,1111122 
COMPS,ioos:station:USF.COMPS:ARP:1,2010-12-01T14:36:00Z,28.4330,-82.6670,0.14,1111122 
COMPS,ioos:station:USF.COMPS:ARP:1,2010-12-01T14:42:00Z,28.4330,-82.6670,0.157,1111122 
COMPS,ioos:station:USF.COMPS:ARP:1,2010-12-01T14:48:00Z,28.4330,-82.6670,0.167,1111122 
COMPS,ioos:station:USF.COMPS:ARP:1,2010-12-01T14:54:00Z,28.4330,-82.6670,0.179,1111122 
COMPS,ioos:station:USF.COMPS:ARP:1,2010-12-01T15:00:00Z,28.4330,-82.6670,0.189,1111122 
COMPS,ioos:station:USF.COMPS:ARP:1,2010-12-01T15:06:00Z,28.4330,-82.6670,0.194,1111122 
COMPS,ioos:station:USF.COMPS:ARP:1,2010-12-01T15:12:00Z,28.4330,-82.6670,0.202,1111122 
COMPS,ioos:station:USF.COMPS:ARP:1,2010-12-01T15:18:00Z,28.4330,-82.6670,0.206,1111122 
COMPS,ioos:station:USF.COMPS:ARP:1,2010-12-01T15:24:00Z,28.4330,-82.6670,0.206,1111122 
COMPS,ioos:station:USF.COMPS:ARP:1,2010-12-01T15:30:00Z,28.4330,-82.6670,0.21,1111122 
COMPS,ioos:station:USF.COMPS:ARP:1,2010-12-01T15:36:00Z,28.4330,-82.6670,0.212,1111122 
COMPS,ioos:station:USF.COMPS:ARP:1,2010-12-01T15:42:00Z,28.4330,-82.6670,0.202,1111122 
COMPS,ioos:station:USF.COMPS:ARP:1,2010-12-01T15:48:00Z,28.4330,-82.6670,0.205,1111122 
COMPS,ioos:station:USF.COMPS:ARP:1,2010-12-01T15:54:00Z,28.4330,-82.6670,0.195,1111122 
COMPS,ioos:station:USF.COMPS:ARP:1,2010-12-01T16:00:00Z,28.4330,-82.6670,0.181,1111122 
COMPS,ioos:station:USF.COMPS:ARP:1,2010-12-01T16:06:00Z,28.4330,-82.6670,0.179,1111122 
COMPS,ioos:station:USF.COMPS:ARP:1,2010-12-01T16:12:00Z,28.4330,-82.6670,0.17,1111122 
COMPS,ioos:station:USF.COMPS:ARP:1,2010-12-01T16:18:00Z,28.4330,-82.6670,0.171,1111122 
COMPS,ioos:station:USF.COMPS:ARP:1,2010-12-01T16:24:00Z,28.4330,-82.6670,0.167,1111122 
COMPS,ioos:station:USF.COMPS:ARP:1,2010-12-01T16:30:00Z,28.4330,-82.6670,0.159,1111122 
COMPS,ioos:station:USF.COMPS:ARP:1,2010-12-01T16:36:00Z,28.4330,-82.6670,0.154,1111122 
COMPS,ioos:station:USF.COMPS:ARP:1,2010-12-01T16:42:00Z,28.4330,-82.6670,0.14,1111122 
COMPS,ioos:station:USF.COMPS:ARP:1,2010-12-01T16:48:00Z,28.4330,-82.6670,0.127,1111122 
COMPS,ioos:station:USF.COMPS:ARP:1,2010-12-01T16:54:00Z,28.4330,-82.6670,0.121,1111122 
COMPS,ioos:station:USF.COMPS:ARP:1,2010-12-01T17:00:00Z,28.4330,-82.6670,0.099,1111122 
COMPS,ioos:station:USF.COMPS:ARP:1,2010-12-01T17:06:00Z,28.4330,-82.6670,0.091,1111122 
COMPS,ioos:station:USF.COMPS:ARP:1,2010-12-01T17:12:00Z,28.4330,-82.6670,0.076,1111122 
COMPS,ioos:station:USF.COMPS:ARP:1,2010-12-01T17:18:00Z,28.4330,-82.6670,0.067,1111122 
COMPS,ioos:station:USF.COMPS:ARP:1,2010-12-01T17:24:00Z,28.4330,-82.6670,0.056,1111122 
COMPS,ioos:station:USF.COMPS:ARP:1,2010-12-01T17:30:00Z,28.4330,-82.6670,0.04,1111122 
COMPS,ioos:station:USF.COMPS:ARP:1,2010-12-01T17:36:00Z,28.4330,-82.6670,0.032,1111122 
COMPS,ioos:station:USF.COMPS:ARP:1,2010-12-01T17:42:00Z,28.4330,-82.6670,0.018,1111122 
COMPS,ioos:station:USF.COMPS:ARP:1,2010-12-01T17:48:00Z,28.4330,-82.6670,0.009,1111122 
COMPS,ioos:station:USF.COMPS:ARP:1,2010-12-01T17:54:00Z,28.4330,-82.6670,-0.004,1111122 
COMPS,ioos:station:USF.COMPS:ARP:1,2010-12-01T18:00:00Z,28.4330,-82.6670,-0.019,1111122 
COMPS,ioos:station:USF.COMPS:ARP:1,2010-12-01T18:06:00Z,28.4330,-82.6670,-0.029,1111122 
COMPS,ioos:station:USF.COMPS:ARP:1,2010-12-01T18:12:00Z,28.4330,-82.6670,-0.042,1111122 
COMPS,ioos:station:USF.COMPS:ARP:1,2010-12-01T18:18:00Z,28.4330,-82.6670,-0.056,1111122 
COMPS,ioos:station:USF.COMPS:ARP:1,2010-12-01T18:24:00Z,28.4330,-82.6670,-0.065,1111122 
COMPS,ioos:station:USF.COMPS:ARP:1,2010-12-01T18:30:00Z,28.4330,-82.6670,-0.079,1111122 
COMPS,ioos:station:USF.COMPS:ARP:1,2010-12-01T18:36:00Z,28.4330,-82.6670,-0.092,1111122 
COMPS,ioos:station:USF.COMPS:ARP:1,2010-12-01T18:42:00Z,28.4330,-82.6670,-0.101,1111122 
COMPS,ioos:station:USF.COMPS:ARP:1,2010-12-01T18:48:00Z,28.4330,-82.6670,-0.117,1111122 
COMPS,ioos:station:USF.COMPS:ARP:1,2010-12-01T18:54:00Z,28.4330,-82.6670,-0.132,1111122 
COMPS,ioos:station:USF.COMPS:ARP:1,2010-12-01T19:00:00Z,28.4330,-82.6670,-0.138,1111122 
COMPS,ioos:station:USF.COMPS:ARP:1,2010-12-01T19:06:00Z,28.4330,-82.6670,-0.156,1111122 
COMPS,ioos:station:USF.COMPS:ARP:1,2010-12-01T19:12:00Z,28.4330,-82.6670,-0.163,1111122 
COMPS,ioos:station:USF.COMPS:ARP:1,2010-12-01T19:18:00Z,28.4330,-82.6670,-0.172,1111122 
COMPS,ioos:station:USF.COMPS:ARP:1,2010-12-01T19:24:00Z,28.4330,-82.6670,-0.184,1111122 
COMPS,ioos:station:USF.COMPS:ARP:1,2010-12-01T19:30:00Z,28.4330,-82.6670,-0.193,1111122 
COMPS,ioos:station:USF.COMPS:ARP:1,2010-12-01T19:36:00Z,28.4330,-82.6670,-0.203,1111122 
COMPS,ioos:station:USF.COMPS:ARP:1,2010-12-01T19:42:00Z,28.4330,-82.6670,-0.214,1111122 
COMPS,ioos:station:USF.COMPS:ARP:1,2010-12-01T19:48:00Z,28.4330,-82.6670,-0.223,1111122 
COMPS,ioos:station:USF.COMPS:ARP:1,2010-12-01T19:54:00Z,28.4330,-82.6670,-0.235,1111122 
COMPS,ioos:station:USF.COMPS:ARP:1,2010-12-01T20:00:00Z,28.4330,-82.6670,-0.245,1111122 
COMPS,ioos:station:USF.COMPS:ARP:1,2010-12-01T20:06:00Z,28.4330,-82.6670,-0.255,1111122 
COMPS,ioos:station:USF.COMPS:ARP:1,2010-12-01T20:12:00Z,28.4330,-82.6670,-0.267,1111122 
COMPS,ioos:station:USF.COMPS:ARP:1,2010-12-01T20:18:00Z,28.4330,-82.6670,-0.277,1111122 
COMPS,ioos:station:USF.COMPS:ARP:1,2010-12-01T20:24:00Z,28.4330,-82.6670,-0.287,1111122 
COMPS,ioos:station:USF.COMPS:ARP:1,2010-12-01T20:30:00Z,28.4330,-82.6670,-0.299,1111122 
COMPS,ioos:station:USF.COMPS:ARP:1,2010-12-01T20:36:00Z,28.4330,-82.6670,-0.307,1111122 
COMPS,ioos:station:USF.COMPS:ARP:1,2010-12-01T20:42:00Z,28.4330,-82.6670,-0.318,1111122 
COMPS,ioos:station:USF.COMPS:ARP:1,2010-12-01T20:48:00Z,28.4330,-82.6670,-0.328,1111122 
COMPS,ioos:station:USF.COMPS:ARP:1,2010-12-01T20:54:00Z,28.4330,-82.6670,-0.338,1111122 
COMPS,ioos:station:USF.COMPS:ARP:1,2010-12-01T21:00:00Z,28.4330,-82.6670,-0.347,1111122 
COMPS,ioos:station:USF.COMPS:ARP:1,2010-12-01T21:06:00Z,28.4330,-82.6670,-0.356,1111122 
COMPS,ioos:station:USF.COMPS:ARP:1,2010-12-01T21:12:00Z,28.4330,-82.6670,-0.364,1111122 
COMPS,ioos:station:USF.COMPS:ARP:1,2010-12-01T21:18:00Z,28.4330,-82.6670,-0.372,1111122 
COMPS,ioos:station:USF.COMPS:ARP:1,2010-12-01T21:24:00Z,28.4330,-82.6670,-0.379,1111122 
COMPS,ioos:station:USF.COMPS:ARP:1,2010-12-01T21:30:00Z,28.4330,-82.6670,-0.386,1111122 
COMPS,ioos:station:USF.COMPS:ARP:1,2010-12-01T21:36:00Z,28.4330,-82.6670,-0.392,1111122 
COMPS,ioos:station:USF.COMPS:ARP:1,2010-12-01T21:42:00Z,28.4330,-82.6670,-0.399,1111122 
COMPS,ioos:station:USF.COMPS:ARP:1,2010-12-01T21:48:00Z,28.4330,-82.6670,-0.404,1111122 
COMPS,ioos:station:USF.COMPS:ARP:1,2010-12-01T21:54:00Z,28.4330,-82.6670,-0.41,1111122 
COMPS,ioos:station:USF.COMPS:ARP:1,2010-12-01T22:00:00Z,28.4330,-82.6670,-0.414,1111122 
COMPS,ioos:station:USF.COMPS:ARP:1,2010-12-01T22:06:00Z,28.4330,-82.6670,-0.42,1111122 
COMPS,ioos:station:USF.COMPS:ARP:1,2010-12-01T22:12:00Z,28.4330,-82.6670,-0.425,1111122 
COMPS,ioos:station:USF.COMPS:ARP:1,2010-12-01T22:18:00Z,28.4330,-82.6670,-0.431,1111122 
COMPS,ioos:station:USF.COMPS:ARP:1,2010-12-01T22:24:00Z,28.4330,-82.6670,-0.437,1111122 
COMPS,ioos:station:USF.COMPS:ARP:1,2010-12-01T22:30:00Z,28.4330,-82.6670,-0.442,1111122 
COMPS,ioos:station:USF.COMPS:ARP:1,2010-12-01T22:36:00Z,28.4330,-82.6670,-0.445,1111122 
COMPS,ioos:station:USF.COMPS:ARP:1,2010-12-01T22:42:00Z,28.4330,-82.6670,-0.445,1111122 
COMPS,ioos:station:USF.COMPS:ARP:1,2010-12-01T22:48:00Z,28.4330,-82.6670,-0.442,1111122 
COMPS,ioos:station:USF.COMPS:ARP:1,2010-12-01T22:54:00Z,28.4330,-82.6670,-0.438,1111122 
COMPS,ioos:station:USF.COMPS:ARP:1,2010-12-01T23:00:00Z,28.4330,-82.6670,-0.432,1111122 
COMPS,ioos:station:USF.COMPS:ARP:1,2010-12-01T23:06:00Z,28.4330,-82.6670,-0.423,1111122 
COMPS,ioos:station:USF.COMPS:ARP:1,2010-12-01T23:12:00Z,28.4330,-82.6670,-0.412,1111122 
COMPS,ioos:station:USF.COMPS:ARP:1,2010-12-01T23:18:00Z,28.4330,-82.6670,-0.4,1111122 
COMPS,ioos:station:USF.COMPS:ARP:1,2010-12-01T23:24:00Z,28.4330,-82.6670,-0.387,1111122 
COMPS,ioos:station:USF.COMPS:ARP:1,2010-12-01T23:30:00Z,28.4330,-82.6670,-0.372,1111122 
COMPS,ioos:station:USF.COMPS:ARP:1,2010-12-01T23:36:00Z,28.4330,-82.6670,-0.356,1111122 
COMPS,ioos:station:USF.COMPS:ARP:1,2010-12-01T23:42:00Z,28.4330,-82.6670,-0.34,1111122 
COMPS,ioos:station:USF.COMPS:ARP:1,2010-12-01T23:48:00Z,28.4330,-82.6670,-0.323,1111122 
COMPS,ioos:station:USF.COMPS:ARP:1,2010-12-01T23:54:00Z,28.4330,-82.6670,-0.304,1111122 
COMPS,ioos:station:USF.COMPS:ARP:1,2010-12-02T00:00:00Z,28.4330,-82.6670,-0.285,1111122 
COMPS,ioos:station:USF.COMPS:ARP:1,2010-12-02T00:06:00Z,28.4330,-82.6670,-0.265,1111122 
COMPS,ioos:station:USF.COMPS:ARP:1,2010-12-02T00:12:00Z,28.4330,-82.6670,-0.244,1111122 
COMPS,ioos:station:USF.COMPS:ARP:1,2010-12-02T00:18:00Z,28.4330,-82.6670,-0.222,1111122 
COMPS,ioos:station:USF.COMPS:ARP:1,2010-12-02T00:24:00Z,28.4330,-82.6670,-0.201,1111122 
COMPS,ioos:station:USF.COMPS:ARP:1,2010-12-02T00:30:00Z,28.4330,-82.6670,-0.181,1111122 
COMPS,ioos:station:USF.COMPS:ARP:1,2010-12-02T00:36:00Z,28.4330,-82.6670,-0.162,1111122 
COMPS,ioos:station:USF.COMPS:ARP:1,2010-12-02T00:42:00Z,28.4330,-82.6670,-0.143,1111122 
COMPS,ioos:station:USF.COMPS:ARP:1,2010-12-02T00:48:00Z,28.4330,-82.6670,-0.128,1111122 
COMPS,ioos:station:USF.COMPS:ARP:1,2010-12-02T00:54:00Z,28.4330,-82.6670,-0.113,1111122 
COMPS,ioos:station:USF.COMPS:ARP:1,2010-12-02T01:00:00Z,28.4330,-82.6670,-0.102,1111122 
COMPS,ioos:station:USF.COMPS:ARP:1,2010-12-02T01:06:00Z,28.4330,-82.6670,-0.09,1111122 
COMPS,ioos:station:USF.COMPS:ARP:1,2010-12-02T01:12:00Z,28.4330,-82.6670,-0.084,1111122 
COMPS,ioos:station:USF.COMPS:ARP:1,2010-12-02T01:18:00Z,28.4330,-82.6670,-0.076,1111122 
COMPS,ioos:station:USF.COMPS:ARP:1,2010-12-02T01:24:00Z,28.4330,-82.6670,-0.068,1111122 
COMPS,ioos:station:USF.COMPS:ARP:1,2010-12-02T01:30:00Z,28.4330,-82.6670,-0.063,1111122 
COMPS,ioos:station:USF.COMPS:ARP:1,2010-12-02T01:36:00Z,28.4330,-82.6670,-0.061,1111122 
COMPS,ioos:station:USF.COMPS:ARP:1,2010-12-02T01:42:00Z,28.4330,-82.6670,-0.058,1111122 
COMPS,ioos:station:USF.COMPS:ARP:1,2010-12-02T01:48:00Z,28.4330,-82.6670,-0.061,1111122 
COMPS,ioos:station:USF.COMPS:ARP:1,2010-12-02T01:54:00Z,28.4330,-82.6670,-0.062,1111122 
COMPS,ioos:station:USF.COMPS:ARP:1,2010-12-02T02:00:00Z,28.4330,-82.6670,-0.066,1111122 
COMPS,ioos:station:USF.COMPS:ARP:1,2010-12-02T02:06:00Z,28.4330,-82.6670,-0.067,1111122 
COMPS,ioos:station:USF.COMPS:ARP:1,2010-12-02T02:12:00Z,28.4330,-82.6670,-0.061,1111122 
COMPS,ioos:station:USF.COMPS:ARP:1,2010-12-02T02:18:00Z,28.4330,-82.6670,-0.057,1111122 
COMPS,ioos:station:USF.COMPS:ARP:1,2010-12-02T02:24:00Z,28.4330,-82.6670,-0.051,1111122 
COMPS,ioos:station:USF.COMPS:ARP:1,2010-12-02T02:30:00Z,28.4330,-82.6670,-0.045,1111122 
COMPS,ioos:station:USF.COMPS:ARP:1,2010-12-02T02:36:00Z,28.4330,-82.6670,-0.042,1111122 
COMPS,ioos:station:USF.COMPS:ARP:1,2010-12-02T02:42:00Z,28.4330,-82.6670,-0.041,1111122 
COMPS,ioos:station:USF.COMPS:ARP:1,2010-12-02T02:48:00Z,28.4330,-82.6670,-0.043,1111122 
COMPS,ioos:station:USF.COMPS:ARP:1,2010-12-02T02:54:00Z,28.4330,-82.6670,-0.045,1111122 